STARLINK-11723 [DTC] (64075 NORAD) Tracking and Keplerian Element Data

This shows tracking and keplerian element data for the satellite.

Feedback or suggestion? Click here.




ElementValue
Catalog64075
NameSTARLINK-11723 [DTC]
Epoch Orbit3476
Epoch Day353.99841152
Epoch Year2025
RAAN218.6762
Inclination42.9991
Eccentricity0.0001478
Argument of Perigee277.2034
Mean Anonmoly82.8665
Mean Motion15.70883116
Decay Rate0.00229135
L11 64075U 25107M 25353.99841152 .00229135 00000+0 17373-2 0 9998
L22 64075 42.9991 218.6762 0001478 277.2034 82.8665 15.70883116 34760



Live tracking and technical data element details for STARLINK-11723 [DTC] (NORAD 64075). STARLINK-11723 [DTC] can be tracked NOW for your location showing map with azimuth and elevation plus other details from your city location.







IsCatalogInMostPopularTable: catalog: 64075, numindb: 7
Update: records affected: 1



GetName: 64075 STARLINK-11723 [DTC]

Hit Count: updated at: Sat, 11 Apr 2026 21:42:39 GMT